#timestamp,LO_Frequency,Hit,StdDev 
1457953215.5,286047002.3,N
1457953235.4,286047000.8,N
1457953255.2,286047004.3,N
1457953275.0,286047004.9,N
1457953275.9,286047004.9,N
1457953295.8,286047001.7,N
1457953315.6,286046998.2,N
1457953335.4,286047002.2,N
1457953355.3,286046999.7,N
1457953375.1,286047005.9,N
1457953376.0,286047005.9,N
1457953395.8,286047010.3,N
1457953415.7,286047006.2,N
1457953435.5,286047006.8,N
1457953455.3,286047006.2,N
1457953475.1,286047004.5,N
1457953495.9,286047009.2,N
1457953515.7,286047010.7,N
1457953535.5,286047010.3,N
1457953555.4,286047010.4,N
1457953575.2,286047007.7,N
1457953595.0,286047010.4,N
1457953595.9,286047010.4,N
1457953615.8,286047012.3,N
1457953635.6,286047013.8,N
1457953655.4,286047013.6,N
1457953675.3,286047008.6,N
1457953695.1,286047006.3,N
1457953696.0,286047006.3,N
1457953715.8,286047005.2,N
1457953735.7,286047003.4,N
1457953755.5,286047005.5,N
1457953775.3,286047001.3,N
1457953795.2,286047002.8,N
1457953815.9,286047001.9,N
1457953835.7,286046999.1,N
1457953855.6,286046999.6,N
1457953875.4,286046996.1,N
1457953895.2,286046996.2,N
1457953915.0,286046993.5,N
1457953915.9,286046993.5,N
1457953935.8,286046998.0,N
1457953955.6,286047000.5,N
1457953975.4,286046998.3,N
1457953995.3,286046998.5,N
1457954015.1,286046999.4,N
1457954035.8,286046998.4,N
1457954055.7,286047000.5,N
1457954075.5,286047003.3,N
1457954095.3,286047004.8,N
1457954115.2,286047009.6,N
1457954135.9,286047013.1,N
1457954155.7,286047013.0,N
1457954175.6,286047015.2,N
1457954195.4,286047014.2,N
1457954215.2,286047018.8,Y
1457954235.1,286047016.6,P
1457954236.0,286047016.6,N
1457954255.8,286047018.3,N
1457954275.6,286047016.7,N
1457954295.5,286047016.6,N
1457954315.3,286047020.0,Y
1457954335.1,286047003.7,P
1457954355.9,286047001.6,N
1457954375.7,286047002.9,N
1457954395.5,286047004.8,N
1457954415.3,286047001.4,N
1457954435.2,286047004.1,N
1457954455.0,286047005.7,N
1457954455.9,286047005.7,N
1457954475.7,286047007.3,N
1457954495.6,286047004.6,N
1457954515.4,286047007.6,N
1457954535.2,286047008.7,N
1457954555.1,286047009.1,N
1457954556.0,286047009.1,N
1457954575.8,286047010.6,Y
1457954595.6,286047001.5,P
1457954615.5,286047002.4,N
1457954635.3,286047000.3,N
1457954655.1,286046999.0,N
1457954675.9,286046999.2,N
1457954695.7,286046996.4,N
1457954715.5,286046998.7,N
1457954735.4,286047003.0,N
1457954755.2,286047005.0,N
1457954775.0,286047005.8,N
1457954775.9,286047005.8,N
1457954795.8,286047007.0,N
1457954815.6,286047007.2,N
1457954835.4,286047007.0,N
1457954855.2,286047007.1,N
1457954875.1,286047008.3,N
1457954876.0,286047008.3,N
1457954895.8,286047009.1,N
1457954915.6,286047003.2,N
1457954935.5,286047003.5,N
1457954955.3,286047001.7,N
1457954975.1,286046999.7,N
1457954995.9,286046997.0,N
1457955015.7,286046993.7,N
1457955035.5,286046994.9,N
1457955055.4,286046992.2,N
1457955075.2,286046992.7,N
1457955095.0,286046990.2,N
1457955095.9,286046990.2,N
1457955115.8,286046989.8,N
1457955135.6,286046989.4,N
1457955155.4,286046989.8,N
1457955175.2,286046988.2,N
1457955195.1,286046984.2,N
1457955196.0,286046984.2,N
1457955215.8,286046980.6,N
1457955235.6,286046979.3,N
1457955255.5,286046978.0,N
1457955275.3,286046977.7,N
1457955295.1,286046982.0,N
1457955315.9,286046983.5,N
1457955335.7,286046985.0,N
1457955355.5,286046986.8,N
1457955375.4,286046983.8,N
1457955395.2,286046984.5,N
1457955415.0,286046985.0,N
1457955415.9,286046985.0,N
1457955435.8,286046984.1,N
1457955455.6,286046986.3,N
1457955475.4,286046985.8,N
1457955495.3,286046986.8,N
1457955515.1,286046983.8,Y
1457955516.0,286046983.8,P
1457955535.8,286046998.1,N
1457955555.7,286046999.8,N
1457955575.5,286047002.1,N
1457955595.3,286047002.3,N
1457955615.2,286047002.5,N
1457955635.9,286047002.2,N
1457955655.7,286047004.0,N
1457955675.5,286047002.8,N
1457955695.4,286047002.4,N
1457955715.2,286047002.7,N
1457955735.0,286046999.6,N
1457955735.9,286046999.6,N
1457955755.8,286047002.6,N
1457955775.6,286047003.9,N
1457955795.4,286047002.6,N
1457955815.3,286046998.8,N
1457955835.1,286047002.7,N
1457955836.0,286047002.7,N
1457955855.8,286047002.0,N
1457955875.7,286047002.5,N
1457955895.5,286046998.6,N
1457955915.3,286047001.7,N
1457955935.2,286047001.8,N
1457955955.9,286047004.2,N
1457955975.7,286047003.5,N
1457955995.6,286047000.0,N
1457956015.4,286046999.4,N
1457956035.2,286046998.8,N
1457956055.0,286046999.9,N
1457956055.9,286046999.9,N
1457956075.8,286047002.5,N
1457956095.6,286047004.2,N
1457956115.4,286047001.0,N
1457956135.3,286046998.7,N
1457956155.1,286046999.9,N
1457956175.8,286047002.1,N
1457956195.7,286047002.2,N
1457956215.5,286047001.5,N
1457956235.3,286047004.8,N
1457956255.2,286047002.9,N
1457956275.9,286047003.4,N
1457956295.7,286047000.3,N
1457956315.6,286046996.8,N
1457956335.4,286046997.1,N
1457956355.2,286046998.6,N
1457956375.0,286047001.7,N
1457956376.0,286047001.7,N
1457956395.8,286046999.2,N
1457956415.6,286046998.6,N
1457956435.4,286046998.3,N
1457956455.3,286047002.1,N
1457956475.1,286047000.5,N
1457956495.8,286046998.3,N
1457956515.7,286046999.1,N
1457956535.5,286046997.6,N
1457956555.3,286046997.2,N
1457956575.2,286046996.7,N
1457956595.9,286046994.5,N
1457956615.7,286046995.7,N
1457956635.6,286046993.8,N
1457956655.4,286046995.5,N
1457956675.2,286046996.0,N
1457956695.1,286046997.1,N
1457956696.0,286046997.1,N
1457956715.8,286046999.5,N
1457956735.6,286047001.1,N
1457956755.5,286046999.1,N
1457956775.3,286046996.1,N
1457956795.1,286046994.3,N
